JST443 YMHB-YBBN

Flight info

Callsign JST443
Flight time 2h 24m
Altitude 33000
Route TASUM H111 LT W218 VIMAP Y327 MAKRL/N0425F340 J163 CB W137 AVBEG W184 MUDGI/N0432F350 H66 LAGOB H252 BN
Aircraft A320/M-SDE3FGHIRWY/LB1

Departure

Time 2026-05-08 00:54
Airport Hobart International Airport (YMHB)

Arrival

Time 2026-05-08 03:18
Airport Brisbane International Airport (YBBN)
Time Latitude Longitude Altitude Speed Heading
2026-05-08 00:23 -42.83655 147.50584 22 ft 0 kts 225°
2026-05-08 00:44 -42.83648 147.50593 4 ft 2 kts 230°
2026-05-08 00:44 -42.83640 147.50610 24 ft 4 kts 225°
2026-05-08 00:45 -42.83622 147.50629 23 ft 4 kts 186°
2026-05-08 00:45 -42.83600 147.50620 22 ft 4 kts 135°
2026-05-08 00:45 -42.83587 147.50601 22 ft 0 kts 135°
2026-05-08 00:49 -42.83591 147.50606 24 ft 2 kts 135°
2026-05-08 00:49 -42.83598 147.50628 23 ft 3 kts 102°
2026-05-08 00:49 -42.83589 147.50663 22 ft 5 kts 56°
2026-05-08 00:49 -42.83553 147.50694 24 ft 7 kts 10°
2026-05-08 00:50 -42.83505 147.50660 22 ft 9 kts 316°
2026-05-08 00:50 -42.83458 147.50593 24 ft 11 kts 313°
2026-05-08 00:50 -42.83391 147.50553 23 ft 12 kts 18°
2026-05-08 00:50 -42.83328 147.50635 23 ft 13 kts 45°
2026-05-08 00:51 -42.83267 147.50689 22 ft 11 kts
2026-05-08 00:51 -42.83206 147.50626 23 ft 12 kts 312°
2026-05-08 00:51 -42.83143 147.50537 22 ft 14 kts 315°
2026-05-08 00:51 -42.83068 147.50436 23 ft 16 kts 315°
2026-05-08 00:52 -42.82983 147.50321 24 ft 18 kts 315°
2026-05-08 00:52 -42.82928 147.50183 22 ft 17 kts 276°
2026-05-08 00:52 -42.82893 147.50077 22 ft 8 kts 319°
2026-05-08 00:52 -42.82844 147.50092 22 ft 8 kts 57°
2026-05-08 00:53 -42.82870 147.50164 22 ft 10 kts 138°
2026-05-08 00:53 -42.82944 147.50263 22 ft 33 kts 136°
2026-05-08 00:53 -42.83281 147.50721 22 ft 100 kts 135°
2026-05-08 00:53 -42.83898 147.51561 26 ft 149 kts 135°
2026-05-08 00:54 -42.84710 147.52681 228 ft 175 kts 137°
2026-05-08 00:54 -42.85534 147.53875 924 ft 175 kts 140°
2026-05-08 00:54 -42.86381 147.55043 1702 ft 171 kts 144°
2026-05-08 00:54 -42.87177 147.56118 2651 ft 151 kts 146°
2026-05-08 00:55 -42.87904 147.57097 3320 ft 145 kts 148°
2026-05-08 00:55 -42.88534 147.58217 3807 ft 164 kts 116°
2026-05-08 00:55 -42.88390 147.59862 4230 ft 195 kts 64°
2026-05-08 00:55 -42.87472 147.61406 4399 ft 222 kts 50°
2026-05-08 00:56 -42.86345 147.63030 4542 ft 252 kts 49°
2026-05-08 00:56 -42.85026 147.64801 4854 ft 276 kts 41°
2026-05-08 00:56 -42.83362 147.66158 5462 ft 284 kts 14°
2026-05-08 00:56 -42.81392 147.66326 5889 ft 290 kts 339°
2026-05-08 00:57 -42.79532 147.65291 6469 ft 290 kts 322°
2026-05-08 00:57 -42.77779 147.63905 7186 ft 293 kts 320°
2026-05-08 00:57 -42.76023 147.62437 7941 ft 297 kts 320°
2026-05-08 00:57 -42.74236 147.60942 8621 ft 307 kts 324°
2026-05-08 00:58 -42.72248 147.59756 9329 ft 317 kts 333°
2026-05-08 00:58 -42.70230 147.58596 10072 ft 317 kts 325°
2026-05-08 00:58 -42.68377 147.56947 10515 ft 325 kts 314°
2026-05-08 00:58 -42.66586 147.54901 10683 ft 347 kts 313°
2026-05-08 00:59 -42.64717 147.52747 11126 ft 356 kts 313°
2026-05-08 00:59 -42.62807 147.50560 11709 ft 361 kts 314°
2026-05-08 00:59 -42.60869 147.48356 12348 ft 366 kts 314°
2026-05-08 00:59 -42.58908 147.46135 12992 ft 369 kts 314°
2026-05-08 01:00 -42.56950 147.43856 13634 ft 372 kts 313°
2026-05-08 01:00 -42.54998 147.41519 14153 ft 377 kts 314°
2026-05-08 01:00 -42.52813 147.39467 14683 ft 387 kts 327°
2026-05-08 01:00 -42.50292 147.38060 15207 ft 396 kts 341°
2026-05-08 01:01 -42.47590 147.37414 15738 ft 403 kts 355°
2026-05-08 01:01 -42.44773 147.37554 16261 ft 408 kts
2026-05-08 01:01 -42.41952 147.38102 16786 ft 411 kts
2026-05-08 01:01 -42.39107 147.38642 17320 ft 415 kts
2026-05-08 01:02 -42.36231 147.39173 17869 ft 418 kts
2026-05-08 01:02 -42.33338 147.39701 18396 ft 421 kts
2026-05-08 01:02 -42.30423 147.40242 18855 ft 425 kts
2026-05-08 01:02 -42.27487 147.40812 19340 ft 428 kts
2026-05-08 01:03 -42.24529 147.41401 19795 ft 432 kts
2026-05-08 01:03 -42.21546 147.42006 20242 ft 435 kts
2026-05-08 01:03 -42.18542 147.42619 20704 ft 438 kts
2026-05-08 01:03 -42.15518 147.43239 21144 ft 441 kts
2026-05-08 01:04 -42.12474 147.43866 21576 ft 444 kts
2026-05-08 01:04 -42.10444 147.44285 21862 ft 446 kts
2026-05-08 01:04 -42.07360 147.44923 22295 ft 449 kts
2026-05-08 01:04 -42.04256 147.45561 22685 ft 453 kts
2026-05-08 01:05 -42.00110 147.46413 23226 ft 457 kts
2026-05-08 01:05 -41.96953 147.47056 23633 ft 460 kts
2026-05-08 01:05 -41.93776 147.47701 23977 ft 463 kts
2026-05-08 01:05 -41.90582 147.48341 24321 ft 466 kts
2026-05-08 01:06 -41.88401 147.48627 24544 ft 467 kts 359°
2026-05-08 01:06 -41.85224 147.48164 24863 ft 464 kts 342°
2026-05-08 01:06 -41.82242 147.46622 25242 ft 457 kts 326°
2026-05-08 01:06 -41.79584 147.44318 25573 ft 455 kts 320°
2026-05-08 01:07 -41.76960 147.41918 25907 ft 458 kts 320°
2026-05-08 01:07 -41.74328 147.39496 26234 ft 461 kts 320°
2026-05-08 01:07 -41.71680 147.37058 26553 ft 464 kts 320°
2026-05-08 01:07 -41.69008 147.34606 26868 ft 467 kts 320°
2026-05-08 01:08 -41.66318 147.32150 27137 ft 469 kts 321°
2026-05-08 01:08 -41.63619 147.29696 27504 ft 470 kts 321°
2026-05-08 01:08 -41.60900 147.27234 27856 ft 473 kts 321°
2026-05-08 01:08 -41.58103 147.24887 28175 ft 479 kts 328°
2026-05-08 01:09 -41.55044 147.23053 28483 ft 486 kts 337°
2026-05-08 01:09 -41.51772 147.21827 28784 ft 492 kts 347°
2026-05-08 01:09 -41.48363 147.21251 29097 ft 496 kts 356°
2026-05-08 01:09 -41.44899 147.21163 29423 ft 499 kts 359°
2026-05-08 01:10 -41.41411 147.21107 29708 ft 502 kts 358°
2026-05-08 01:10 -41.37926 147.21052 30138 ft 501 kts 358°
2026-05-08 01:10 -41.34438 147.20995 30554 ft 500 kts 358°
2026-05-08 01:10 -41.30963 147.20936 30945 ft 499 kts 358°
2026-05-08 01:11 -41.27493 147.20876 31330 ft 498 kts 358°
2026-05-08 01:11 -41.24031 147.20814 31717 ft 498 kts 358°
2026-05-08 01:11 -41.20609 147.20752 32124 ft 498 kts 358°
2026-05-08 01:11 -41.17146 147.20692 32494 ft 498 kts 358°
2026-05-08 01:12 -41.13684 147.20633 32841 ft 497 kts 358°
2026-05-08 01:12 -41.10219 147.20578 33248 ft 496 kts 358°
2026-05-08 01:12 -41.06768 147.20524 33648 ft 496 kts 358°
2026-05-08 01:12 -41.03321 147.20469 34027 ft 495 kts 358°
2026-05-08 01:13 -40.99876 147.20414 34350 ft 495 kts 358°
2026-05-08 01:13 -40.96423 147.20357 34565 ft 497 kts 358°
2026-05-08 01:13 -40.92953 147.20296 34809 ft 498 kts 358°
2026-05-08 01:13 -40.89483 147.20237 35004 ft 499 kts 358°
2026-05-08 01:14 -40.85997 147.20179 35055 ft 503 kts 358°
2026-05-08 01:14 -40.78980 147.20058 35067 ft 504 kts 358°
2026-05-08 01:15 -40.71959 147.19939 35062 ft 505 kts 358°
2026-05-08 01:15 -40.65027 147.20859 35062 ft 505 kts 15°
2026-05-08 01:16 -40.59278 147.23637 35059 ft 503 kts 26°
2026-05-08 01:16 -40.52974 147.27347 35065 ft 504 kts 26°
2026-05-08 01:17 -40.46564 147.31089 35067 ft 504 kts 26°
2026-05-08 01:17 -40.40156 147.34814 35057 ft 504 kts 26°
2026-05-08 01:18 -40.33748 147.38536 35069 ft 504 kts 26°
2026-05-08 01:18 -40.27353 147.42255 35079 ft 504 kts 26°
2026-05-08 01:19 -40.20966 147.45970 35079 ft 503 kts 26°
2026-05-08 01:19 -40.14555 147.49679 35077 ft 503 kts 26°
2026-05-08 01:20 -40.08265 147.53293 35073 ft 503 kts 26°
2026-05-08 01:20 -40.01862 147.56972 35083 ft 503 kts 26°
2026-05-08 01:21 -39.95466 147.60656 35087 ft 502 kts 26°
2026-05-08 01:21 -39.89070 147.64348 35076 ft 502 kts 26°
2026-05-08 01:22 -39.82663 147.68012 35083 ft 503 kts 25°
2026-05-08 01:22 -39.76251 147.71666 35067 ft 503 kts 25°
2026-05-08 01:23 -39.69836 147.75320 35073 ft 504 kts 25°
2026-05-08 01:23 -39.63420 147.78976 35069 ft 504 kts 25°
2026-05-08 01:24 -39.57005 147.82631 35073 ft 504 kts 25°
2026-05-08 01:24 -39.50586 147.86270 35076 ft 504 kts 25°
2026-05-08 01:25 -39.44161 147.89889 35074 ft 503 kts 25°
2026-05-08 01:25 -39.37736 147.93519 35107 ft 504 kts 25°
2026-05-08 01:26 -39.31310 147.97150 35076 ft 504 kts 25°
2026-05-08 01:26 -39.24873 148.00766 35075 ft 505 kts 24°
2026-05-08 01:27 -39.18473 148.04347 35072 ft 505 kts 24°
2026-05-08 01:27 -39.12027 148.07958 35068 ft 505 kts 24°
2026-05-08 01:28 -39.05580 148.11576 35077 ft 505 kts 24°
2026-05-08 01:28 -38.99134 148.15168 35071 ft 505 kts 24°
2026-05-08 01:29 -38.92687 148.18742 35090 ft 504 kts 24°
2026-05-08 01:29 -38.86241 148.22317 35105 ft 505 kts 24°
2026-05-08 01:30 -38.79785 148.25906 35079 ft 505 kts 24°
2026-05-08 01:30 -38.73360 148.29465 35084 ft 506 kts 24°
2026-05-08 01:31 -38.66896 148.33030 35085 ft 506 kts 24°
2026-05-08 01:31 -38.60425 148.36598 35086 ft 506 kts 24°
2026-05-08 01:32 -38.53968 148.40152 35091 ft 506 kts 23°
2026-05-08 01:32 -38.47328 148.43071 35072 ft 504 kts
2026-05-08 01:33 -38.40455 148.44773 35093 ft 503 kts
2026-05-08 01:33 -38.33583 148.46490 35106 ft 503 kts
2026-05-08 01:34 -38.26723 148.48212 35120 ft 503 kts
2026-05-08 01:34 -38.19853 148.49920 35080 ft 503 kts
2026-05-08 01:35 -38.12974 148.51617 35078 ft 504 kts
2026-05-08 01:35 -38.06079 148.53317 35079 ft 504 kts
2026-05-08 01:36 -37.99230 148.55013 35095 ft 505 kts
2026-05-08 01:36 -37.92337 148.56717 35080 ft 505 kts
2026-05-08 01:37 -37.85450 148.58414 35118 ft 504 kts
2026-05-08 01:37 -37.78572 148.60102 35121 ft 503 kts
2026-05-08 01:38 -37.71695 148.61787 35115 ft 502 kts
2026-05-08 01:38 -37.64837 148.63461 35128 ft 501 kts
2026-05-08 01:39 -37.57992 148.65145 35136 ft 501 kts
2026-05-08 01:39 -37.51158 148.66818 35119 ft 499 kts
2026-05-08 01:40 -37.44384 148.68452 35137 ft 498 kts
2026-05-08 01:40 -37.37584 148.70106 35135 ft 497 kts
2026-05-08 01:41 -37.30802 148.71754 35123 ft 495 kts
2026-05-08 01:41 -37.24044 148.73392 35135 ft 494 kts
2026-05-08 01:42 -37.17295 148.75026 35135 ft 493 kts
2026-05-08 01:42 -37.10557 148.76650 35141 ft 492 kts
2026-05-08 01:43 -37.03883 148.78249 35130 ft 491 kts
2026-05-08 01:43 -36.97163 148.79856 35123 ft 490 kts
2026-05-08 01:44 -36.90466 148.81470 35105 ft 490 kts
2026-05-08 01:44 -36.83777 148.83083 35106 ft 489 kts
2026-05-08 01:45 -36.77092 148.84674 35088 ft 489 kts
2026-05-08 01:45 -36.70416 148.86268 35103 ft 488 kts
2026-05-08 01:46 -36.63753 148.87862 35102 ft 487 kts
2026-05-08 01:46 -36.57097 148.89442 35095 ft 487 kts
2026-05-08 01:47 -36.50438 148.91017 35095 ft 486 kts
2026-05-08 01:47 -36.43791 148.92588 35093 ft 486 kts
2026-05-08 01:48 -36.33822 148.94947 35094 ft 486 kts
2026-05-08 01:48 -36.27171 148.96522 35091 ft 486 kts
2026-05-08 01:49 -36.20569 148.98073 35095 ft 486 kts
2026-05-08 01:49 -36.13937 148.99632 35084 ft 486 kts
2026-05-08 01:50 -36.07299 149.01191 35098 ft 486 kts
2026-05-08 01:50 -36.00657 149.02743 35113 ft 485 kts
2026-05-08 01:51 -35.94014 149.04300 35123 ft 485 kts
2026-05-08 01:51 -35.87377 149.05849 35119 ft 486 kts
2026-05-08 01:52 -35.80727 149.07396 35110 ft 487 kts
2026-05-08 01:52 -35.74062 149.08951 35096 ft 487 kts
2026-05-08 01:53 -35.67401 149.10502 35110 ft 487 kts
2026-05-08 01:53 -35.61863 149.11783 35117 ft 487 kts
2026-05-08 01:54 -35.54107 149.13574 35125 ft 487 kts
2026-05-08 01:54 -35.47442 149.15113 35133 ft 488 kts
2026-05-08 01:55 -35.41845 149.16413 35137 ft 488 kts
2026-05-08 01:55 -35.35217 149.17941 35119 ft 488 kts
2026-05-08 01:56 -35.28490 149.18809 35145 ft 478 kts 352°
2026-05-08 01:56 -35.22093 149.17522 35145 ft 463 kts 337°
2026-05-08 01:57 -35.15885 149.15381 35156 ft 464 kts 337°
2026-05-08 01:57 -35.09664 149.13278 35179 ft 464 kts 337°
2026-05-08 01:58 -35.03443 149.11188 35197 ft 463 kts 338°
2026-05-08 01:58 -34.97230 149.09086 35213 ft 463 kts 337°
2026-05-08 01:59 -34.91028 149.06975 35214 ft 463 kts 337°
2026-05-08 01:59 -34.84747 149.05157 35221 ft 470 kts 347°
2026-05-08 02:00 -34.78138 149.05376 35232 ft 483 kts
2026-05-08 02:00 -34.71545 149.07027 35240 ft 483 kts
2026-05-08 02:01 -34.64965 149.08667 35233 ft 482 kts
2026-05-08 02:01 -34.58405 149.10305 35255 ft 481 kts
2026-05-08 02:02 -34.51894 149.11929 35249 ft 480 kts
2026-05-08 02:02 -34.45361 149.13546 35247 ft 478 kts
2026-05-08 02:03 -34.38849 149.15149 35263 ft 477 kts
2026-05-08 02:03 -34.32354 149.16748 35263 ft 476 kts
2026-05-08 02:04 -34.25874 149.18348 35262 ft 475 kts
2026-05-08 02:04 -34.19395 149.19951 35265 ft 475 kts
2026-05-08 02:05 -34.12929 149.21548 35270 ft 474 kts
2026-05-08 02:05 -34.06463 149.23127 35268 ft 474 kts
2026-05-08 02:06 -34.00007 149.24703 35265 ft 473 kts
2026-05-08 02:06 -33.93572 149.26281 35278 ft 471 kts
2026-05-08 02:07 -33.87154 149.27843 35280 ft 470 kts
2026-05-08 02:07 -33.80749 149.29410 35256 ft 469 kts
2026-05-08 02:08 -33.74357 149.30973 35271 ft 468 kts
2026-05-08 02:08 -33.67970 149.32525 35278 ft 468 kts
2026-05-08 02:09 -33.61637 149.34067 35253 ft 467 kts
2026-05-08 02:09 -33.55270 149.35608 35267 ft 466 kts
2026-05-08 02:10 -33.48909 149.37144 35272 ft 466 kts
2026-05-08 02:10 -33.42548 149.38682 35266 ft 466 kts
2026-05-08 02:11 -33.36195 149.40219 35248 ft 466 kts
2026-05-08 02:11 -33.29831 149.41750 35248 ft 466 kts
2026-05-08 02:12 -33.23470 149.43282 35255 ft 466 kts
2026-05-08 02:12 -33.17107 149.44815 35236 ft 466 kts
2026-05-08 02:13 -33.10742 149.46347 35243 ft 467 kts
2026-05-08 02:13 -33.04371 149.47873 35247 ft 467 kts
2026-05-08 02:14 -32.98006 149.49397 35228 ft 467 kts
2026-05-08 02:14 -32.91646 149.50913 35247 ft 466 kts
2026-05-08 02:15 -32.85297 149.52428 35257 ft 465 kts
2026-05-08 02:15 -32.78996 149.53928 35258 ft 464 kts
2026-05-08 02:16 -32.72664 149.55432 35251 ft 463 kts
2026-05-08 02:16 -32.66349 149.56932 35265 ft 462 kts
2026-05-08 02:17 -32.60051 149.58443 35267 ft 463 kts
2026-05-08 02:17 -32.53994 149.61264 35249 ft 476 kts 25°
2026-05-08 02:18 -32.48510 149.65762 35262 ft 479 kts 30°
2026-05-08 02:18 -32.43080 149.70341 35260 ft 479 kts 30°
2026-05-08 02:19 -32.37646 149.74912 35257 ft 479 kts 30°
2026-05-08 02:19 -32.32222 149.79468 35231 ft 478 kts 30°
2026-05-08 02:20 -32.26805 149.84001 35235 ft 477 kts 30°
2026-05-08 02:20 -32.21385 149.88524 35239 ft 476 kts 30°
2026-05-08 02:21 -32.15986 149.93038 35257 ft 476 kts 30°
2026-05-08 02:21 -32.10576 149.97549 35241 ft 476 kts 30°
2026-05-08 02:22 -32.05171 150.02046 35239 ft 475 kts 30°
2026-05-08 02:22 -31.99808 150.06513 35234 ft 475 kts 30°
2026-05-08 02:23 -31.94405 150.11002 35202 ft 475 kts 30°
2026-05-08 02:23 -31.89004 150.15474 35217 ft 475 kts 29°
2026-05-08 02:24 -31.83605 150.19942 35234 ft 474 kts 29°
2026-05-08 02:24 -31.78207 150.24414 35236 ft 474 kts 29°
2026-05-08 02:25 -31.72821 150.28871 35217 ft 473 kts 29°
2026-05-08 02:25 -31.67441 150.33311 35228 ft 472 kts 29°
2026-05-08 02:26 -31.62062 150.37739 35245 ft 471 kts 29°
2026-05-08 02:26 -31.56696 150.42144 35222 ft 471 kts 28°
2026-05-08 02:27 -31.51323 150.46549 35233 ft 471 kts 28°
2026-05-08 02:27 -31.45995 150.50916 35236 ft 471 kts 28°
2026-05-08 02:28 -31.40626 150.55305 35242 ft 471 kts 28°
2026-05-08 02:28 -31.35245 150.59706 35230 ft 471 kts 27°
2026-05-08 02:29 -31.29874 150.64090 35239 ft 471 kts 27°
2026-05-08 02:29 -31.24500 150.68471 35246 ft 471 kts 27°
2026-05-08 02:30 -31.19118 150.72854 35251 ft 471 kts 27°
2026-05-08 02:30 -31.13780 150.77197 35247 ft 471 kts 27°
2026-05-08 02:31 -31.08392 150.81572 35244 ft 472 kts 27°
2026-05-08 02:31 -31.03273 150.86488 35243 ft 480 kts 34°
2026-05-08 02:32 -30.98302 150.91683 35243 ft 480 kts 34°
2026-05-08 02:32 -30.93319 150.96866 35214 ft 480 kts 33°
2026-05-08 02:33 -30.88328 151.02051 35215 ft 480 kts 34°
2026-05-08 02:33 -30.83336 151.07232 35223 ft 481 kts 33°
2026-05-08 02:34 -30.78332 151.12409 35207 ft 482 kts 33°
2026-05-08 02:34 -30.73353 151.17562 35187 ft 482 kts 33°
2026-05-08 02:35 -30.68339 151.22755 35178 ft 482 kts 33°
2026-05-08 02:35 -30.63323 151.27932 35182 ft 482 kts 33°
2026-05-08 02:36 -30.58297 151.33106 35182 ft 482 kts 32°
2026-05-08 02:36 -30.53271 151.38259 35160 ft 482 kts 31°
2026-05-08 02:37 -30.48239 151.43420 35173 ft 483 kts 31°
2026-05-08 02:37 -30.43212 151.48581 35167 ft 483 kts 31°
2026-05-08 02:38 -30.38183 151.53734 35172 ft 483 kts 31°
2026-05-08 02:38 -30.33155 151.58875 35132 ft 482 kts 31°
2026-05-08 02:39 -30.28126 151.64015 35160 ft 482 kts 31°
2026-05-08 02:39 -30.23098 151.69137 35149 ft 482 kts 31°
2026-05-08 02:40 -30.18072 151.74260 35144 ft 482 kts 31°
2026-05-08 02:40 -30.13888 151.78523 35144 ft 482 kts 31°
2026-05-08 02:41 -30.08030 151.84472 35127 ft 482 kts 30°
2026-05-08 02:41 -30.02994 151.89577 35123 ft 482 kts 30°
2026-05-08 02:42 -29.98804 151.93814 35128 ft 482 kts 30°
2026-05-08 02:42 -29.93752 151.98917 35093 ft 482 kts 30°
2026-05-08 02:43 -29.88707 152.04021 35099 ft 482 kts 30°
2026-05-08 02:43 -29.83663 152.09110 35097 ft 482 kts 30°
2026-05-08 02:44 -29.78616 152.14193 35096 ft 482 kts 30°
2026-05-08 02:44 -29.73571 152.19271 35056 ft 482 kts 29°
2026-05-08 02:45 -29.68520 152.24351 35072 ft 481 kts 29°
2026-05-08 02:45 -29.63462 152.29406 35086 ft 482 kts 29°
2026-05-08 02:46 -29.58402 152.34463 35093 ft 482 kts 29°
2026-05-08 02:46 -29.53343 152.39521 35061 ft 482 kts 29°
2026-05-08 02:47 -29.48318 152.44549 35085 ft 482 kts 29°
2026-05-08 02:47 -29.43263 152.49605 35094 ft 482 kts 29°
2026-05-08 02:48 -29.38202 152.54654 35091 ft 482 kts 28°
2026-05-08 02:48 -29.33138 152.59693 35059 ft 482 kts 28°
2026-05-08 02:49 -29.28070 152.64722 35079 ft 482 kts 28°
2026-05-08 02:49 -29.22996 152.69739 35084 ft 482 kts 28°
2026-05-08 02:50 -29.17921 152.74764 35093 ft 482 kts 28°
2026-05-08 02:50 -29.12839 152.79798 35063 ft 482 kts 28°
2026-05-08 02:51 -29.07759 152.84811 35086 ft 482 kts 28°
2026-05-08 02:51 -29.02703 152.89786 35094 ft 483 kts 28°
2026-05-08 02:52 -28.97609 152.94800 35094 ft 484 kts 28°
2026-05-08 02:52 -28.92504 152.99827 34944 ft 483 kts 28°
2026-05-08 02:53 -28.89930 153.02259 34349 ft 474 kts 22°
2026-05-08 02:53 -28.87173 153.04189 33751 ft 455 kts 13°
2026-05-08 02:53 -28.84301 153.05534 33122 ft 438 kts
2026-05-08 02:53 -28.81384 153.06379 32508 ft 429 kts 360°
2026-05-08 02:54 -28.78481 153.07123 31909 ft 428 kts
2026-05-08 02:54 -28.75569 153.07870 31318 ft 428 kts
2026-05-08 02:54 -28.72674 153.08615 30745 ft 427 kts
2026-05-08 02:54 -28.69774 153.09365 30178 ft 426 kts
2026-05-08 02:55 -28.66882 153.10113 29470 ft 425 kts
2026-05-08 02:55 -28.61147 153.11598 28185 ft 421 kts
2026-05-08 02:55 -28.58297 153.12337 27564 ft 419 kts
2026-05-08 02:56 -28.55456 153.13071 26964 ft 418 kts
2026-05-08 02:56 -28.52626 153.13800 26371 ft 417 kts
2026-05-08 02:56 -28.49797 153.14527 25786 ft 416 kts
2026-05-08 02:56 -28.46984 153.15246 25219 ft 413 kts
2026-05-08 02:57 -28.44189 153.15960 24654 ft 411 kts
2026-05-08 02:57 -28.41433 153.16667 24093 ft 411 kts
2026-05-08 02:57 -28.38615 153.17388 23520 ft 410 kts
2026-05-08 02:57 -28.35868 153.18092 22883 ft 409 kts
2026-05-08 02:58 -28.33083 153.18808 22244 ft 409 kts
2026-05-08 02:58 -28.30312 153.19517 21631 ft 409 kts
2026-05-08 02:58 -28.27536 153.20228 21039 ft 408 kts
2026-05-08 02:58 -28.24776 153.20936 20448 ft 407 kts
2026-05-08 02:59 -28.22012 153.21645 19869 ft 407 kts
2026-05-08 02:59 -28.19258 153.22339 19305 ft 404 kts
2026-05-08 02:59 -28.16500 153.22917 18798 ft 400 kts
2026-05-08 02:59 -28.13786 153.23391 18565 ft 389 kts
2026-05-08 03:00 -28.11136 153.23812 18313 ft 379 kts
2026-05-08 03:00 -28.08559 153.24213 18050 ft 369 kts
2026-05-08 03:00 -28.06044 153.24612 17780 ft 360 kts
2026-05-08 03:00 -28.03622 153.25012 17525 ft 352 kts
2026-05-08 03:01 -28.01222 153.25419 17269 ft 345 kts
2026-05-08 03:01 -27.98875 153.25825 17004 ft 339 kts
2026-05-08 03:01 -27.96561 153.26229 16762 ft 334 kts
2026-05-08 03:01 -27.94272 153.26627 16520 ft 332 kts
2026-05-08 03:02 -27.91992 153.27018 16260 ft 331 kts
2026-05-08 03:02 -27.89715 153.27406 16012 ft 330 kts
2026-05-08 03:02 -27.87456 153.27795 15768 ft 329 kts
2026-05-08 03:02 -27.85194 153.28188 15523 ft 328 kts
2026-05-08 03:03 -27.82950 153.28577 15298 ft 324 kts
2026-05-08 03:03 -27.80729 153.28961 14953 ft 323 kts
2026-05-08 03:03 -27.78504 153.29346 14586 ft 323 kts
2026-05-08 03:03 -27.76283 153.29731 14210 ft 323 kts
2026-05-08 03:04 -27.74065 153.30115 13827 ft 323 kts
2026-05-08 03:04 -27.71835 153.30500 13426 ft 323 kts
2026-05-08 03:04 -27.69618 153.30883 13049 ft 322 kts
2026-05-08 03:04 -27.67411 153.31264 12673 ft 321 kts
2026-05-08 03:05 -27.65208 153.31641 12293 ft 320 kts
2026-05-08 03:05 -27.63003 153.31878 11972 ft 315 kts 359°
2026-05-08 03:05 -27.60849 153.31971 11776 ft 313 kts 359°
2026-05-08 03:05 -27.58674 153.32072 11547 ft 313 kts 359°
2026-05-08 03:06 -27.56502 153.32179 11322 ft 312 kts 360°
2026-05-08 03:06 -27.54332 153.32288 11087 ft 312 kts 360°
2026-05-08 03:06 -27.52169 153.32396 10865 ft 311 kts 360°
2026-05-08 03:06 -27.50009 153.32502 10641 ft 310 kts 360°
2026-05-08 03:07 -27.47856 153.32606 10413 ft 310 kts 360°
2026-05-08 03:07 -27.45706 153.32708 10187 ft 309 kts 359°
2026-05-08 03:07 -27.43570 153.32811 9960 ft 306 kts 359°
2026-05-08 03:07 -27.41444 153.32912 9732 ft 305 kts 359°
2026-05-08 03:08 -27.39324 153.33013 9505 ft 304 kts
2026-05-08 03:08 -27.37204 153.33118 9150 ft 307 kts
2026-05-08 03:08 -27.35111 153.33561 8846 ft 306 kts 17°
2026-05-08 03:08 -27.33154 153.34493 8506 ft 305 kts 24°
2026-05-08 03:09 -27.31232 153.35485 8213 ft 303 kts 24°
2026-05-08 03:09 -27.29320 153.36466 7905 ft 301 kts 24°
2026-05-08 03:09 -27.27422 153.37440 7601 ft 299 kts 24°
2026-05-08 03:09 -27.25528 153.38411 7299 ft 298 kts 24°
2026-05-08 03:10 -27.23645 153.39375 6993 ft 297 kts 24°
2026-05-08 03:10 -27.21716 153.40153 6697 ft 294 kts
2026-05-08 03:10 -27.19700 153.40222 6393 ft 289 kts 349°
2026-05-08 03:10 -27.17802 153.39578 6075 ft 283 kts 330°
2026-05-08 03:11 -27.16210 153.38344 5765 ft 277 kts 316°
2026-05-08 03:11 -27.14759 153.36968 5637 ft 268 kts 314°
2026-05-08 03:11 -27.13658 153.35362 5524 ft 254 kts 291°
2026-05-08 03:11 -27.13249 153.33534 5388 ft 240 kts 269°
2026-05-08 03:12 -27.13499 153.31722 5160 ft 233 kts 247°
2026-05-08 03:12 -27.14177 153.30094 4940 ft 228 kts 243°
2026-05-08 03:12 -27.14856 153.28506 4718 ft 223 kts 244°
2026-05-08 03:12 -27.15516 153.26950 4514 ft 218 kts 243°
2026-05-08 03:13 -27.16396 153.25602 4302 ft 214 kts 221°
2026-05-08 03:13 -27.17642 153.24735 4175 ft 207 kts 208°
2026-05-08 03:13 -27.18903 153.24020 4029 ft 200 kts 208°
2026-05-08 03:13 -27.20132 153.23321 3813 ft 197 kts 208°
2026-05-08 03:14 -27.21353 153.22625 3559 ft 196 kts 208°
2026-05-08 03:14 -27.22569 153.21932 3303 ft 196 kts 208°
2026-05-08 03:14 -27.23782 153.21241 3041 ft 196 kts 208°
2026-05-08 03:14 -27.25000 153.20547 2794 ft 195 kts 208°
2026-05-08 03:15 -27.26186 153.19871 2529 ft 186 kts 208°
2026-05-08 03:15 -27.27308 153.19231 2273 ft 177 kts 207°
2026-05-08 03:15 -27.28395 153.18611 2039 ft 174 kts 207°
2026-05-08 03:15 -27.29454 153.18007 1813 ft 173 kts 208°
2026-05-08 03:16 -27.30524 153.17396 1580 ft 173 kts 207°
2026-05-08 03:16 -27.31579 153.16794 1370 ft 164 kts 208°
2026-05-08 03:16 -27.32559 153.16235 1132 ft 154 kts 207°
2026-05-08 03:16 -27.33503 153.15696 935 ft 153 kts 208°
2026-05-08 03:17 -27.34469 153.15153 710 ft 157 kts 207°
2026-05-08 03:17 -27.35429 153.14616 522 ft 150 kts 210°
2026-05-08 03:17 -27.36345 153.14066 330 ft 148 kts 206°
2026-05-08 03:17 -27.37304 153.13524 121 ft 158 kts 209°
2026-05-08 03:18 -27.38249 153.12984 23 ft 135 kts 208°
2026-05-08 03:18 -27.38837 153.12648 21 ft 67 kts 208°
2026-05-08 03:18 -27.39199 153.12439 20 ft 48 kts 206°
2026-05-08 03:18 -27.39468 153.12289 22 ft 32 kts 207°
2026-05-08 03:19 -27.39587 153.12198 20 ft 15 kts 246°
2026-05-08 03:19 -27.39565 153.12079 19 ft 17 kts 298°
2026-05-08 03:19 -27.39504 153.11960 19 ft 16 kts 301°
2026-05-08 03:19 -27.39442 153.11935 18 ft 11 kts 18°
2026-05-08 03:20 -27.39366 153.11977 20 ft 14 kts 27°
2026-05-08 03:20 -27.39272 153.12031 18 ft 16 kts 27°
2026-05-08 03:20 -27.39164 153.12093 18 ft 19 kts 26°
2026-05-08 03:20 -27.39038 153.12164 18 ft 21 kts 27°
2026-05-08 03:21 -27.38914 153.12235 19 ft 20 kts 27°
2026-05-08 03:21 -27.38823 153.12273 18 ft 12 kts 349°
2026-05-08 03:21 -27.38768 153.12240 18 ft 8 kts
2026-05-08 03:21 -27.38709 153.12269 18 ft 11 kts 25°
2026-05-08 03:22 -27.38664 153.12266 18 ft 7 kts 310°
2026-05-08 03:22 -27.38646 153.12238 18 ft 0 kts 308°